Historique des mesures à Cassis (13260), France
Quotidien Résumé Janvier 25, 2018 Unités:  Métrique    US   Métrique/US
« Précédent (Jour)
Suivant (Jour) »
Quotidien Hebdomadaire Mensuel Annuel Période au choix
  Maximum: Minimum: Moyenne:
Température: TemperatureC °C 12.4 °C 13 °C
Point de rosée: DewpointC °C 7.3 °C 9.2 °C
Humidité: Humidity % 71 % 74 %
Vitesse du vent: 0 km/h 0 km/h 5 km/h
Rafales: 0 km/h - -
Vent:- - SSE
Pression: PressurehPa hPa 1014.8 hPa -
Précipitations: 0 mm    
Historical Graphs
 
 
Mesures pour : Janvier 25, 2018
Heure Temperature Point de rosée Pression Vent Vitesse du vent Rafales Humidité Pluie (par heure)
TemperatureC °C DewpointC °C PressurehPa hPa Calm     Humidity % 0 mm
00:12 12.4 °C 7.3 °C 1023.6 hPa SE 5.1 km/h 29.5 km/h 71 % 0 mm
01:12 12.4 °C 7.7 °C 1023.2 hPa Calm   5.6 km/h 73 % 0 mm
02:12 12.6 °C 7.9 °C 1022.9 hPa ESE 5.6 km/h 7.6 km/h 73 % 0 mm
03:12 12.9 °C 8.6 °C 1022.6 hPa SSE 5.1 km/h 7.6 km/h 75 % 0 mm
04:12 12.9 °C 8.6 °C 1021.9 hPa ESE 4.7 km/h 9.8 km/h 75 % 0 mm
05:12 12.9 °C 8.9 °C 1021.2 hPa SE 11.6 km/h 11.6 km/h 77 % 0 mm
06:12 13.0 °C 9.0 °C 1021.2 hPa Calm   8 km/h 77 % 0 mm
07:12 13.1 °C 9.1 °C 1020.5 hPa ENE 3.4 km/h 8.9 km/h 77 % 0 mm
08:12 13.1 °C 9.3 °C 1020.5 hPa Calm   17.9 km/h 78 % 0 mm
09:12 13.4 °C 9.8 °C 1020.5 hPa ESE 4.2 km/h 8 km/h 79 % 0 mm
10:12 13.8 °C 10.4 °C 1019.9 hPa NE 5.6 km/h 5.6 km/h 80 % 0 mm
11:12 13.8 °C 10.6 °C 1020.2 hPa SW 17.9 km/h 17.9 km/h 81 % 0 mm
12:12 14.1 °C 10.7 °C 1019.5 hPa Calm   3.4 km/h 80 % 0 mm
13:12 14.5 °C 10.5 °C 1018.5 hPa WSW 2.3 km/h 5.6 km/h 77 % 0 mm
14:12 15.0 °C 10.4 °C 1017.8 hPa SSE 6.9 km/h 6.9 km/h 74 % 0 mm
15:12 14.8 °C 10.0 °C 1017.2 hPa SE 16.3 km/h 19.6 km/h 73 % 0 mm
16:12 14.1 °C 9.5 °C 1016.8 hPa NW 2.9 km/h 10.3 km/h 74 % 0 mm
17:12 13.8 °C 9.8 °C 1016.5 hPa Calm   5.6 km/h 77 % 0 mm
18:12 13.9 °C 10.1 °C 1015.8 hPa ESE 6.4 km/h 9.3 km/h 78 % 0 mm
19:12 13.8 °C 10.2 °C 1015.8 hPa SW 7.6 km/h 7.6 km/h 79 % 0 mm
20:12 13.8 °C 10.4 °C 1015.5 hPa SSW 5.1 km/h 20.3 km/h 80 % 0 mm
21:12 13.6 °C 10.2 °C 1015.1 hPa East 3.4 km/h 10.3 km/h 80 % 0 mm
22:12 13.8 °C 10.4 °C 1014.8 hPa ESE 4.7 km/h 6.4 km/h 80 % 0 mm
23:12 13.4 °C 9.8 °C 1014.8 hPa ESE 4.2 km/h 20.9 km/h 79 % 0 mm
Observations météo à CASSIS
WU-History script by Weather Underground - 1 mb